• In Lithuania
  • List of Countries
  • For 7 days
  • Water Temperature
  • Satellite Maps
  • Weather Map
  • Weather Widgets
  • user-avatar
    Login

    Hourly Weather Borowki

    Today, 21 September, Friday

    Time Temperature Precipitation Wind Pressure Humidity
    00:00 +21°C° 0 mm 3 mps 754 mmHg 65%
    01:00 +21°C° 0 mm 3 mps 754 mmHg 66%
    02:00 +21°C° 0 mm 3 mps 754 mmHg 67%
    03:00 +20°C° 0 mm 3 mps 754 mmHg 68%
    04:00 +20°C° 0 mm 3 mps 753 mmHg 69%
    05:00 +20°C° 0 mm 4 mps 753 mmHg 69%
    06:00 +21°C° 0 mm 4 mps 753 mmHg 68%
    07:00 +21°C° 0 mm 4 mps 753 mmHg 68%
    08:00 +23°C° 0 mm 5 mps 753 mmHg 62%
    09:00 +26°C° 0 mm 5 mps 752 mmHg 56%
    10:00 +27°C° 0 mm 6 mps 752 mmHg 50%
    11:00 +28°C° 0 mm 6 mps 751 mmHg 46%
    12:00 +29°C° 0 mm 7 mps 750 mmHg 43%
    13:00 +30°C° 0 mm 7 mps 749 mmHg 39%
    14:00 +30°C° 0 mm 7 mps 749 mmHg 39%
    15:00 +30°C° 0 mm 6 mps 748 mmHg 39%
    16:00 +30°C° 0 mm 6 mps 748 mmHg 39%
    17:00 +27°C° 0.6 mm 6 mps 748 mmHg 47%
    18:00 +24°C° 0.6 mm 7 mps 748 mmHg 56%
    19:00 +21°C° 0.6 mm 7 mps 749 mmHg 65%
    20:00 +18°C° 1.1 mm 7 mps 750 mmHg 69%
    21:00 +16°C° 1.1 mm 6 mps 751 mmHg 73%
    22:00 +14°C° 1.1 mm 6 mps 751 mmHg 77%
    23:00 +14°C° 0.2 mm 5 mps 752 mmHg 77%

    Tomorrow, 22 September, Saturday

    Time Temperature Precipitation Wind Pressure Humidity
    00:00 +13°C° 0.2 mm 4 mps 753 mmHg 76%
    01:00 +13°C° 0.2 mm 4 mps 753 mmHg 75%
    02:00 +13°C° 0 mm 4 mps 753 mmHg 73%
    03:00 +12°C° 0 mm 4 mps 754 mmHg 71%
    04:00 +10°C° 0 mm 5 mps 754 mmHg 69%
    05:00 +12°C° 0 mm 5 mps 754 mmHg 68%
    06:00 +11°C° 0 mm 6 mps 754 mmHg 67%
    07:00 +11°C° 0 mm 6 mps 755 mmHg 66%
    08:00 +11°C° 0 mm 7 mps 755 mmHg 64%
    09:00 +12°C° 0 mm 7 mps 755 mmHg 62%
    10:00 +14°C° 0 mm 7 mps 755 mmHg 60%
    11:00 +14°C° 0.1 mm 7 mps 755 mmHg 57%
    12:00 +15°C° 0.1 mm 6 mps 756 mmHg 55%
    13:00 +16°C° 0.1 mm 6 mps 756 mmHg 52%
    14:00 +16°C° 0.4 mm 6 mps 756 mmHg 53%
    15:00 +16°C° 0.4 mm 6 mps 755 mmHg 55%
    16:00 +15°C° 0.4 mm 6 mps 755 mmHg 56%
    17:00 +14°C° 0.2 mm 5 mps 755 mmHg 62%
    18:00 +13°C° 0.2 mm 5 mps 756 mmHg 68%
    19:00 +12°C° 0.2 mm 4 mps 756 mmHg 74%
    20:00 +12°C° 0.1 mm 4 mps 756 mmHg 75%
    21:00 +11°C° 0.1 mm 4 mps 756 mmHg 75%
    22:00 +10°C° 0.1 mm 5 mps 756 mmHg 75%
    23:00 +9°C° 0 mm 5 mps 756 mmHg 75%

    Day after tomorrow, 23 September, Sunday

    Time Temperature Precipitation Wind Pressure Humidity
    00:00 +9°C° 0 mm 5 mps 756 mmHg 75%
    01:00 +9°C° 0 mm 5 mps 756 mmHg 75%
    02:00 +8°C° 0 mm 5 mps 756 mmHg 76%
    03:00 +8°C° 0 mm 5 mps 757 mmHg 76%
    04:00 +8°C° 0 mm 5 mps 757 mmHg 77%
    05:00 +8°C° 0 mm 5 mps 757 mmHg 77%
    06:00 +8°C° 0 mm 5 mps 757 mmHg 76%
    07:00 +8°C° 0 mm 5 mps 757 mmHg 76%
    08:00 +10°C° 0 mm 5 mps 757 mmHg 71%
    09:00 +11°C° 0 mm 6 mps 757 mmHg 66%
    10:00 +13°C° 0 mm 6 mps 757 mmHg 60%
    11:00 +14°C° 0 mm 6 mps 757 mmHg 56%
    12:00 +15°C° 0 mm 6 mps 757 mmHg 52%
    13:00 +16°C° 0 mm 5 mps 756 mmHg 47%
    14:00 +15°C° 0 mm 5 mps 756 mmHg 47%
    15:00 +15°C° 0 mm 4 mps 755 mmHg 48%
    16:00 +15°C° 0 mm 4 mps 755 mmHg 48%
    17:00 +14°C° 0.2 mm 3 mps 754 mmHg 56%
    18:00 +13°C° 0.2 mm 3 mps 754 mmHg 64%
    19:00 +12°C° 0.2 mm 2 mps 753 mmHg 71%
    20:00 +11°C° 1.6 mm 3 mps 752 mmHg 77%
    21:00 +11°C° 1.6 mm 3 mps 751 mmHg 83%
    22:00 +11°C° 1.6 mm 4 mps 749 mmHg 88%
    23:00 +11°C° 2 mm 4 mps 748 mmHg 90%

    24 September, Monday

    Time Temperature Precipitation Wind Pressure Humidity
    00:00 +10°C° 2 mm 5 mps 746 mmHg 91%
    01:00 +12°C° 2 mm 5 mps 744 mmHg 92%
    02:00 +12°C° 4.3 mm 5 mps 742 mmHg 94%
    03:00 +13°C° 4.3 mm 5 mps 740 mmHg 95%
    04:00 +13°C° 4.3 mm 4 mps 738 mmHg 96%
    05:00 +14°C° 1.7 mm 5 mps 737 mmHg 93%
    06:00 +14°C° 1.7 mm 6 mps 736 mmHg 90%
    07:00 +15°C° 1.7 mm 7 mps 734 mmHg 86%
    08:00 +12°C° 0.5 mm 8 mps 736 mmHg 85%
    09:00 +11°C° 0.5 mm 10 mps 737 mmHg 84%
    10:00 +9°C° 0.5 mm 11 mps 739 mmHg 83%
    11:00 +9°C° 1 mm 11 mps 741 mmHg 82%
    12:00 +9°C° 1 mm 11 mps 744 mmHg 81%
    13:00 +9°C° 1 mm 11 mps 747 mmHg 80%
    14:00 +8°C° 0.8 mm 11 mps 749 mmHg 79%
    15:00 +8°C° 0.8 mm 11 mps 751 mmHg 77%
    16:00 +8°C° 0.8 mm 11 mps 753 mmHg 76%
    17:00 +7°C° 0.1 mm 9 mps 755 mmHg 74%
    18:00 +7°C° 0.1 mm 8 mps 756 mmHg 71%
    19:00 +7°C° 0.1 mm 6 mps 757 mmHg 68%
    20:00 +7°C° 0 mm 6 mps 758 mmHg 68%
    21:00 +7°C° 0 mm 5 mps 759 mmHg 68%
    22:00 +7°C° 0 mm 5 mps 760 mmHg 69%
    23:00 +6°C° 0 mm 5 mps 761 mmHg 68%

    25 September, Tuesday

    Time Temperature Precipitation Wind Pressure Humidity
    00:00 +6°C° 0 mm 5 mps 762 mmHg 67%
    01:00 +6°C° 0 mm 5 mps 763 mmHg 66%
    02:00 +6°C° 0 mm 5 mps 763 mmHg 66%
    03:00 +6°C° 0 mm 5 mps 764 mmHg 66%
    04:00 +6°C° 0 mm 5 mps 765 mmHg 66%
    05:00 +6°C° 0 mm 5 mps 765 mmHg 66%
    06:00 +6°C° 0 mm 5 mps 765 mmHg 66%
    07:00 +6°C° 0 mm 5 mps 766 mmHg 66%
    08:00 +8°C° 0 mm 6 mps 766 mmHg 62%
    09:00 +10°C° 0 mm 7 mps 766 mmHg 58%
    10:00 +11°C° 0 mm 8 mps 766 mmHg 55%
    11:00 +11°C° 0 mm 8 mps 766 mmHg 54%
    12:00 +12°C° 0 mm 8 mps 765 mmHg 54%
    13:00 +12°C° 0 mm 8 mps 765 mmHg 54%
    14:00 +11°C° 0.5 mm 9 mps 764 mmHg 61%
    15:00 +11°C° 0.5 mm 9 mps 763 mmHg 67%
    16:00 +10°C° 0.5 mm 9 mps 763 mmHg 74%
    17:00 +10°C° 1.7 mm 9 mps 762 mmHg 78%
    18:00 +10°C° 1.7 mm 9 mps 762 mmHg 81%
    19:00 +9°C° 1.7 mm 8 mps 761 mmHg 84%
    20:00 +9°C° 1.8 mm 7 mps 761 mmHg 84%
    21:00 +9°C° 1.8 mm 6 mps 762 mmHg 83%
    22:00 +8°C° 1.8 mm 5 mps 762 mmHg 82%
    23:00 +8°C° 0.1 mm 5 mps 762 mmHg 82%

    26 September, Wednesday

    Time Temperature Precipitation Wind Pressure Humidity
    00:00 +7°C° 0.1 mm 4 mps 762 mmHg 82%
    01:00 +7°C° 0.1 mm 4 mps 763 mmHg 81%
    02:00 +7°C° 0 mm 4 mps 763 mmHg 82%
    03:00 +7°C° 0 mm 3 mps 764 mmHg 82%
    04:00 +7°C° 0 mm 3 mps 764 mmHg 83%
    05:00 +7°C° 0 mm 3 mps 765 mmHg 82%
    06:00 +7°C° 0 mm 3 mps 765 mmHg 80%
    07:00 +8°C° 0 mm 3 mps 766 mmHg 79%
    08:00 +10°C° 0 mm 3 mps 766 mmHg 70%
    09:00 +11°C° 0 mm 3 mps 766 mmHg 62%
    10:00 +13°C° 0 mm 4 mps 766 mmHg 53%
    11:00 +14°C° 0 mm 4 mps 766 mmHg 52%
    12:00 +15°C° 0 mm 4 mps 766 mmHg 52%
    13:00 +15°C° 0 mm 4 mps 766 mmHg 51%
    14:00 +15°C° 0.1 mm 4 mps 766 mmHg 57%
    15:00 +15°C° 0.1 mm 4 mps 766 mmHg 63%
    16:00 +14°C° 0.1 mm 4 mps 766 mmHg 69%
    17:00 +13°C° 0 mm 3 mps 766 mmHg 74%
    18:00 +13°C° 0 mm 3 mps 766 mmHg 79%
    19:00 +12°C° 0 mm 3 mps 766 mmHg 84%
    20:00 +11°C° 0 mm 3 mps 766 mmHg 87%
    21:00 +12°C° 0 mm 2 mps 766 mmHg 89%
    22:00 +10°C° 0 mm 2 mps 766 mmHg 92%
    23:00 +10°C° 0 mm 2 mps 766 mmHg 93%
    Show more